Hourly Weather Murguk

Today, 17 September, Friday

Time Temperature Precipitation Wind Pressure Humidity
00:00 +18°C° 0 mm 1 mps 686 mmHg 67%
01:00 +16°C° 0 mm 1 mps 686 mmHg 69%
02:00 +16°C° 0 mm 1 mps 686 mmHg 70%
03:00 +16°C° 0 mm 1 mps 686 mmHg 72%
04:00 +16°C° 0 mm 1 mps 686 mmHg 75%
05:00 +15°C° 0 mm 1 mps 686 mmHg 79%
06:00 +15°C° 0 mm 1 mps 686 mmHg 82%
07:00 +16°C° 0 mm 2 mps 687 mmHg 78%
08:00 +17°C° 0 mm 2 mps 687 mmHg 73%
09:00 +18°C° 0 mm 3 mps 687 mmHg 71%
10:00 +17°C° 0.1 mm 3 mps 687 mmHg 74%
11:00 +17°C° 0.1 mm 3 mps 687 mmHg 77%
12:00 +16°C° 0.1 mm 2 mps 687 mmHg 81%
13:00 +16°C° 0.2 mm 2 mps 686 mmHg 83%
14:00 +16°C° 0.2 mm 2 mps 686 mmHg 86%
15:00 +15°C° 0.2 mm 2 mps 686 mmHg 88%
16:00 +15°C° 0.4 mm 2 mps 686 mmHg 89%
17:00 +15°C° 0.4 mm 1 mps 686 mmHg 90%
18:00 +15°C° 0.4 mm 1 mps 686 mmHg 91%
19:00 +15°C° 0.1 mm 1 mps 686 mmHg 92%
20:00 +14°C° 0.1 mm 1 mps 687 mmHg 92%
21:00 +14°C° 0.1 mm 1 mps 687 mmHg 92%
22:00 +14°C° 0 mm 1 mps 687 mmHg 92%
23:00 +14°C° 0 mm 1 mps 687 mmHg 92%

Tomorrow, 18 September, Saturday

Time Temperature Precipitation Wind Pressure Humidity
00:00 +14°C° 0 mm 1 mps 687 mmHg 93%
01:00 +14°C° 0 mm 1 mps 686 mmHg 92%
02:00 +13°C° 0 mm 0 mps 686 mmHg 92%
03:00 +13°C° 0 mm 0 mps 686 mmHg 92%
04:00 +13°C° 0 mm 0 mps 686 mmHg 91%
05:00 +14°C° 0 mm 1 mps 686 mmHg 91%
06:00 +14°C° 0 mm 1 mps 686 mmHg 90%
07:00 +14°C° 0 mm 1 mps 686 mmHg 87%
08:00 +15°C° 0 mm 1 mps 687 mmHg 84%
09:00 +16°C° 0 mm 1 mps 687 mmHg 81%
10:00 +16°C° 0.1 mm 2 mps 687 mmHg 80%
11:00 +17°C° 0.1 mm 2 mps 687 mmHg 79%
12:00 +17°C° 0.1 mm 2 mps 687 mmHg 79%
13:00 +17°C° 0.1 mm 2 mps 687 mmHg 80%
14:00 +16°C° 0.1 mm 2 mps 687 mmHg 82%
15:00 +16°C° 0.1 mm 2 mps 687 mmHg 84%
16:00 +16°C° 0 mm 1 mps 687 mmHg 85%
17:00 +15°C° 0 mm 1 mps 687 mmHg 86%
18:00 +15°C° 0 mm 1 mps 687 mmHg 87%
19:00 +15°C° 0 mm 1 mps 687 mmHg 87%
20:00 +15°C° 0 mm 1 mps 687 mmHg 87%
21:00 +14°C° 0 mm 1 mps 687 mmHg 88%
22:00 +14°C° 0 mm 1 mps 687 mmHg 87%
23:00 +14°C° 0 mm 1 mps 687 mmHg 86%

Day after tomorrow, 19 September, Sunday

Time Temperature Precipitation Wind Pressure Humidity
00:00 +14°C° 0 mm 1 mps 687 mmHg 86%
01:00 +14°C° 0 mm 1 mps 687 mmHg 85%
02:00 +13°C° 0 mm 1 mps 686 mmHg 85%
03:00 +13°C° 0 mm 1 mps 686 mmHg 84%
04:00 +13°C° 0 mm 1 mps 686 mmHg 82%
05:00 +13°C° 0 mm 1 mps 686 mmHg 81%
06:00 +13°C° 0 mm 2 mps 686 mmHg 79%
07:00 +15°C° 0 mm 2 mps 687 mmHg 73%
08:00 +17°C° 0 mm 2 mps 687 mmHg 68%
09:00 +19°C° 0 mm 3 mps 687 mmHg 62%
10:00 +20°C° 0 mm 3 mps 687 mmHg 60%
11:00 +20°C° 0 mm 3 mps 687 mmHg 58%
12:00 +21°C° 0 mm 4 mps 687 mmHg 56%
13:00 +21°C° 0 mm 4 mps 687 mmHg 56%
14:00 +21°C° 0 mm 3 mps 686 mmHg 56%
15:00 +21°C° 0 mm 3 mps 686 mmHg 57%
16:00 +19°C° 0 mm 3 mps 686 mmHg 63%
17:00 +17°C° 0 mm 2 mps 686 mmHg 69%
18:00 +16°C° 0 mm 1 mps 686 mmHg 75%
19:00 +16°C° 0 mm 1 mps 686 mmHg 74%
20:00 +16°C° 0 mm 1 mps 685 mmHg 73%
21:00 +16°C° 0 mm 1 mps 685 mmHg 73%
22:00 +16°C° 0 mm 1 mps 685 mmHg 71%
23:00 +16°C° 0 mm 1 mps 685 mmHg 69%

20 September, Monday

Time Temperature Precipitation Wind Pressure Humidity
00:00 +16°C° 0 mm 2 mps 685 mmHg 67%
01:00 +16°C° 0 mm 1 mps 685 mmHg 65%
02:00 +18°C° 0 mm 1 mps 684 mmHg 64%
03:00 +18°C° 0 mm 1 mps 684 mmHg 62%
04:00 +18°C° 0 mm 1 mps 684 mmHg 62%
05:00 +18°C° 0 mm 1 mps 684 mmHg 63%
06:00 +16°C° 0 mm 1 mps 684 mmHg 63%
07:00 +19°C° 0 mm 1 mps 685 mmHg 61%
08:00 +19°C° 0 mm 2 mps 685 mmHg 58%
09:00 +21°C° 0 mm 2 mps 686 mmHg 56%
10:00 +21°C° 0 mm 3 mps 686 mmHg 55%
11:00 +22°C° 0 mm 3 mps 686 mmHg 55%
12:00 +24°C° 0 mm 3 mps 686 mmHg 54%
13:00 +22°C° 0.1 mm 3 mps 686 mmHg 56%
14:00 +22°C° 0.1 mm 3 mps 686 mmHg 58%
15:00 +22°C° 0.1 mm 3 mps 685 mmHg 60%
16:00 +20°C° 0.2 mm 2 mps 685 mmHg 66%
17:00 +20°C° 0.2 mm 1 mps 685 mmHg 72%
18:00 +19°C° 0.2 mm 1 mps 685 mmHg 78%
19:00 +19°C° 0.1 mm 1 mps 686 mmHg 77%
20:00 +19°C° 0.1 mm 1 mps 686 mmHg 77%
21:00 +19°C° 0.1 mm 1 mps 686 mmHg 76%
22:00 +18°C° 0 mm 1 mps 686 mmHg 76%
23:00 +18°C° 0 mm 1 mps 687 mmHg 76%

21 September, Tuesday

Time Temperature Precipitation Wind Pressure Humidity
00:00 +17°C° 0 mm 2 mps 687 mmHg 76%
01:00 +16°C° 0 mm 2 mps 687 mmHg 75%
02:00 +16°C° 0 mm 2 mps 687 mmHg 75%
03:00 +16°C° 0 mm 2 mps 687 mmHg 74%
04:00 +16°C° 0 mm 2 mps 687 mmHg 74%
05:00 +16°C° 0 mm 2 mps 687 mmHg 75%
06:00 +16°C° 0 mm 2 mps 688 mmHg 75%
07:00 +17°C° 0 mm 2 mps 688 mmHg 69%
08:00 +19°C° 0 mm 2 mps 688 mmHg 63%
09:00 +21°C° 0 mm 2 mps 689 mmHg 57%
10:00 +21°C° 0 mm 3 mps 689 mmHg 55%
11:00 +22°C° 0 mm 3 mps 688 mmHg 53%
12:00 +23°C° 0 mm 4 mps 688 mmHg 52%
13:00 +22°C° 0.1 mm 3 mps 688 mmHg 55%
14:00 +21°C° 0.1 mm 3 mps 688 mmHg 58%
15:00 +21°C° 0.1 mm 2 mps 688 mmHg 62%
16:00 +20°C° 0.1 mm 2 mps 688 mmHg 69%
17:00 +19°C° 0.1 mm 1 mps 687 mmHg 77%
18:00 +16°C° 0.1 mm 0 mps 687 mmHg 84%
19:00 +18°C° 0 mm 1 mps 687 mmHg 84%
20:00 +16°C° 0 mm 1 mps 687 mmHg 84%
21:00 +16°C° 0 mm 1 mps 687 mmHg 84%
22:00 +16°C° 0 mm 1 mps 687 mmHg 83%
23:00 +16°C° 0 mm 1 mps 686 mmHg 81%

22 September, Wednesday

Time Temperature Precipitation Wind Pressure Humidity
00:00 +16°C° 0 mm 1 mps 686 mmHg 80%
01:00 +16°C° 0 mm 1 mps 685 mmHg 78%
02:00 +15°C° 0 mm 1 mps 685 mmHg 77%
03:00 +15°C° 0 mm 1 mps 685 mmHg 75%
04:00 +15°C° 0 mm 1 mps 684 mmHg 73%
05:00 +16°C° 0 mm 2 mps 684 mmHg 70%
06:00 +16°C° 0 mm 2 mps 684 mmHg 68%
07:00 +18°C° 0 mm 2 mps 684 mmHg 63%
08:00 +21°C° 0 mm 1 mps 684 mmHg 57%
09:00 +23°C° 0 mm 1 mps 685 mmHg 52%
10:00 +23°C° 0 mm 2 mps 684 mmHg 52%
11:00 +24°C° 0 mm 2 mps 684 mmHg 52%
12:00 +24°C° 0 mm 3 mps 684 mmHg 52%
13:00 +24°C° 0 mm 3 mps 684 mmHg 55%
14:00 +22°C° 0 mm 3 mps 684 mmHg 58%
15:00 +22°C° 0 mm 3 mps 684 mmHg 60%
16:00 +21°C° 0.3 mm 2 mps 684 mmHg 67%
17:00 +20°C° 0.3 mm 1 mps 684 mmHg 73%
18:00 +19°C° 0.3 mm 1 mps 684 mmHg 79%
19:00 +19°C° 0.1 mm 1 mps 685 mmHg 79%
20:00 +18°C° 0.1 mm 1 mps 685 mmHg 80%
21:00 +17°C° 0.1 mm 2 mps 685 mmHg 80%
22:00 +18°C° 0 mm 1 mps 685 mmHg 79%
23:00 +18°C° 0 mm 1 mps 685 mmHg 78%
Show more

We Need Your Consent

Meteoprog and our Service Providers may store and access personal data such as cookies, device identifiers or other similar technologies on your device and process such data to personalise content and ads, as well as provide social media features and to analyse the traffic.

  • Store and/or access information on your device

    Cookies, device identifiers or other information can be stored or accessed on your device for the purposes indicated above.

  • Personalised ads and content, ad and content measurement, audience insights, and products development

    Ads and content can be personalised based on a profile. More data can be added to better personalise ads and content. Ad and content performance can be measured. Insights about the audience who saw the ads and content can be derived. Such data can be used to develop or improve user’s experience, systems and software.

By clicking ‘I Agree’ you will allow the use of indicated cookies, device identifiers, web beacons or other similar technologies. Your settings can be changed in the browser on your device.

For certain purposes, legitimate interests may be relied on, rather than consent. You can read more about this in our Privacy and Cookie Policy.